Weather History for KONA - February, 2013

Change the Weather History Date:

Monday, February 25, 2013

  Actual Average Record
Temperature  
Mean Temperature 28 °F -  
Max Temperature 35 °F 35 °F 53 °F (1998)
Min Temperature 21 °F 14 °F -20 °F (1993)
Degree Days  
Heating Degree Days 37    
Moisture  
Dew Point 23 °F    
Average Humidity 80    
Maximum Humidity 93    
Minimum Humidity 65    
Precipitation  
Precipitation 0.00 in - - ()
Sea Level Pressure  
Sea Level Pressure 30.09 in    
Wind  
Wind Speed 1 mph (SE)    
Max Wind Speed 5 mph    
Max Gust Speed -    
Visibility 7 miles    
Events Snow    
Averages and records for this station are not official NWS values.
T = Trace of Precipitation, MM = Missing Value Source: NWS Daily Summary

Daily Weather History Graph

Daily Weather History Graph

Search for Another Location

Airport or City:

Trip Planner

Search our weather history database for the weather conditions in past years. The results will help you decide how hot, cold, wet, or windy it might be!

Date:

Astronomy

Feb. 25, 2013 Rise Set
Actual Time 6:50 AM CST 5:50 PM CST
Civil Twilight 6:20 AM CST 6:19 PM CST
Nautical Twilight 5:47 AM CST 6:52 PM CST
Astronomical Twilight 5:14 AM CST 7:26 PM CST
Moon 6:06 PM CST (2/25) 6:19 AM CST (2/25)
Length of Visible Light 11h 58m
Length of Day
11h 00m
Full, 100% of the Moon is Illuminated
Feb 25
Full
Feb 25
Full
Mar 4
Last Quarter
Mar 11
New
Mar 19
First Quarter

Hourly Weather History & Observations

Time (CST) Temp. Windchill Dew Point Humidity Pressure Visibility Wind Dir Wind Speed Gust Speed Precip Events Conditions
12:15 AM 28.4 °F - 21.2 °F 74% 30.12 in 10.0 mi Calm Calm - N/A   Overcast
12:36 AM 28.4 °F - 23.0 °F 80% 30.12 in 10.0 mi Calm Calm - N/A   Overcast
12:56 AM 28.4 °F - 23.0 °F 80% 30.12 in 10.0 mi Calm Calm - N/A   Overcast
1:15 AM 28.4 °F - 23.0 °F 80% 30.12 in 10.0 mi Calm Calm - N/A   Overcast
1:36 AM 28.4 °F - 23.0 °F 80% 30.12 in 10.0 mi Calm Calm - N/A   Overcast
1:56 AM 28.4 °F - 23.0 °F 80% 30.12 in 10.0 mi Calm Calm - N/A   Overcast
2:15 AM 28.4 °F - 23.0 °F 80% 30.12 in 10.0 mi Calm Calm - N/A   Overcast
2:36 AM 28.4 °F - 23.0 °F 80% 30.12 in 7.0 mi Calm Calm - N/A   Overcast
2:55 AM 28.4 °F - 23.0 °F 80% 30.11 in 7.0 mi Calm Calm - N/A Snow Light Snow
3:16 AM 28.4 °F 24.6 °F 23.0 °F 80% 30.11 in 4.0 mi SE 3.5 mph - N/A   Overcast
3:36 AM 26.6 °F 22.6 °F 21.2 °F 80% 30.12 in 7.0 mi SE 3.5 mph - N/A Snow Light Snow
3:55 AM 26.6 °F 22.6 °F 21.2 °F 80% 30.11 in 10.0 mi SE 3.5 mph - N/A   Overcast
4:16 AM 26.6 °F - 21.2 °F 80% 30.11 in 7.0 mi Calm Calm - N/A   Overcast
4:36 AM 26.6 °F - 21.2 °F 80% 30.10 in 7.0 mi Calm Calm - N/A   Overcast
4:55 AM 26.6 °F - 21.2 °F 80% 30.11 in 7.0 mi Calm Calm - N/A   Overcast
5:16 AM 26.6 °F - 21.2 °F 80% 30.10 in 10.0 mi Calm Calm - N/A   Overcast
5:35 AM 26.6 °F 21.2 °F 21.2 °F 80% 30.09 in 10.0 mi SE 4.6 mph - N/A   Overcast
5:55 AM 26.6 °F 21.2 °F 21.2 °F 80% 30.11 in 7.0 mi SSE 4.6 mph - N/A   Overcast
6:16 AM 26.6 °F - 21.2 °F 80% 30.12 in 10.0 mi Calm Calm - N/A   Overcast
6:36 AM 26.6 °F 21.2 °F 21.2 °F 80% 30.11 in 10.0 mi SE 4.6 mph - N/A   Overcast
6:55 AM 26.6 °F 22.6 °F 21.2 °F 80% 30.11 in 10.0 mi SE 3.5 mph - N/A   Overcast
7:16 AM 26.6 °F 22.6 °F 21.2 °F 80% 30.11 in 7.0 mi SSE 3.5 mph - N/A   Overcast
7:36 AM 26.6 °F - 21.2 °F 80% 30.11 in 7.0 mi Calm Calm - N/A   Overcast
7:55 AM 28.4 °F - 23.0 °F 80% 30.12 in 7.0 mi Calm Calm - N/A   Overcast
8:16 AM 28.4 °F - 23.0 °F 80% 30.11 in 7.0 mi Calm Calm - N/A   Overcast
8:35 AM 28.4 °F - 23.0 °F 80% 30.12 in 7.0 mi Calm Calm - N/A   Overcast
8:55 AM 28.4 °F - 23.0 °F 80% 30.13 in 5.0 mi Calm Calm - N/A   Haze
9:16 AM 28.4 °F - 23.0 °F 80% 30.12 in 7.0 mi Calm Calm - N/A   Overcast
9:35 AM 28.4 °F - 23.0 °F 80% 30.12 in 7.0 mi Calm Calm - N/A   Overcast
9:55 AM 30.2 °F - 23.0 °F 75% 30.12 in 7.0 mi Calm Calm - N/A   Overcast
10:16 AM 30.2 °F - 24.8 °F 80% 30.12 in 7.0 mi Calm Calm - N/A   Overcast
10:35 AM 30.2 °F - 23.0 °F 75% 30.12 in 7.0 mi Calm Calm - N/A   Overcast
10:55 AM 32.0 °F - 26.6 °F 80% 30.12 in 7.0 mi Calm Calm - N/A   Overcast
11:16 AM 32.0 °F - 26.6 °F 80% 30.12 in 7.0 mi Calm Calm - N/A   Overcast
11:35 AM 32.0 °F - 24.8 °F 75% 30.11 in 7.0 mi Calm Calm - N/A   Overcast
11:55 AM 32.0 °F - 24.8 °F 75% 30.11 in 7.0 mi Calm Calm - N/A   Overcast
12:16 PM 33.8 °F - 24.8 °F 70% 30.11 in 7.0 mi Calm Calm - N/A   Overcast
12:35 PM 32.0 °F - 24.8 °F 75% 30.10 in 7.0 mi Calm Calm - N/A   Overcast
12:55 PM 33.8 °F - 26.6 °F 75% 30.09 in 7.0 mi Calm Calm - N/A   Overcast
1:16 PM 33.8 °F - 26.6 °F 75% 30.09 in 7.0 mi Calm Calm - N/A   Overcast
1:35 PM 33.8 °F - 26.6 °F 75% 30.08 in 7.0 mi Calm Calm - N/A   Overcast
1:55 PM 33.8 °F - 26.6 °F 75% 30.07 in 7.0 mi Calm Calm - N/A   Overcast
2:16 PM 33.8 °F - 26.6 °F 75% 30.07 in 7.0 mi Calm Calm - N/A   Overcast
2:35 PM 33.8 °F - 24.8 °F 70% 30.07 in 7.0 mi Calm Calm - N/A   Overcast
2:55 PM 33.8 °F - 24.8 °F 70% 30.07 in 7.0 mi Calm Calm - N/A   Overcast
3:16 PM 33.8 °F - 24.8 °F 70% 30.06 in 10.0 mi Calm Calm - N/A   Overcast
3:36 PM 35.6 °F - 24.8 °F 65% 30.06 in 10.0 mi Calm Calm - N/A   Overcast
3:55 PM 35.6 °F - 26.6 °F 70% 30.06 in 10.0 mi Calm Calm - N/A   Overcast
4:16 PM 35.6 °F - 26.6 °F 70% 30.06 in 7.0 mi Calm Calm - N/A   Overcast
4:36 PM 35.6 °F - 26.6 °F 70% 30.06 in 10.0 mi Calm Calm - N/A   Overcast
4:55 PM 35.6 °F - 26.6 °F 70% 30.06 in 10.0 mi Calm Calm - N/A   Overcast
8:12 PM 28.4 °F - 24.8 °F 86% 30.06 in 5.0 mi Calm Calm - N/A   Clear
8:16 PM 28.4 °F - 24.8 °F 86% 30.06 in 4.0 mi Calm Calm - N/A   Clear
8:35 PM 28.4 °F - 26.6 °F 93% 30.06 in 5.0 mi Calm Calm - N/A   Clear
8:56 PM 26.6 °F - 23.0 °F 86% 30.05 in 3.0 mi Calm Calm - N/A   Clear
9:16 PM 26.6 °F - 23.0 °F 86% 30.04 in 3.0 mi Calm Calm - N/A   Clear
9:35 PM 24.8 °F - 23.0 °F 93% 30.03 in 3.0 mi Calm Calm - N/A   Clear
9:56 PM 23.0 °F - 21.2 °F 93% 30.03 in 2.5 mi Calm Calm - N/A   Clear
10:16 PM 23.0 °F - 21.2 °F 93% 30.04 in 3.0 mi Calm Calm - N/A   Clear
10:35 PM 21.2 °F - 19.4 °F 93% 30.05 in 3.0 mi Calm Calm - N/A   Clear
10:56 PM 21.2 °F - 19.4 °F 93% 30.05 in 2.5 mi Calm Calm - N/A   Clear
11:16 PM 23.0 °F - 21.2 °F 93% 30.04 in 3.0 mi Calm Calm - N/A   Clear
11:35 PM 23.0 °F - 21.2 °F 93% 30.05 in 3.0 mi Calm Calm - N/A   Clear
11:56 PM 21.2 °F - 19.4 °F 93% 30.05 in 2.5 mi Calm Calm - N/A   Clear